Location: *
(49.9853°N, 3.5569°E)
Time: 15:14:57
(UTC+00:00)

USA 234 - Pass Details

Date: 22 September 2019
Orbit: 1103 x 1105 km, 123.0° (Epoch: 06 October)

Event Time Altitude Azimuth Distance (km) Brightness Sun altitude
Exits shadow 22:37:17 47° 318° (NW) 1,427 4.0 -38.2°
Drops below altitude 10° 22:41:51 10° 302° (WNW) 2,968 6.0 -38.4°
Sets 22:44:21 0° 300° (WNW) 3,927 6.7 -38.6°
